Regional Weather Roundup
Issued by NWS

Home | Current Version | Previous Version | Text Only | Print | Product List | Glossary Off
Versions: 1 2 3 4 5 6 7 8 9 10 11 12 13 14 15 16 17 18 19 20 21 22 23 24 25 26 27 28 29 30 31 32 33 34 35 36 37 38 39 40 41 42 43 44 45 46 47 48 49 50

000
ASUS43 KLMK 222102
RWRKY
KENTUCKY REGIONAL WEATHER ROUNDUP
NATIONAL WEATHER SERVICE LOUISVILLE KY
500 PM EDT MON MAY 22 2017

NOTE "FAIR" INDICATES FEW OR NO CLOUDS BELOW 12,000 FEET
WITH NO SIGNIFICANT WEATHER AND/OR OBSTRUCTIONS TO VISIBILITY.

KYZ001>023-026-027-061>063-070>075-222200-
WESTERN AND SOUTH CENTRAL KENTUCKY

CITY           SKY/WX    TMP DP  RH WIND       PRES   REMARKS
PADUCAH        SUNNY     74  45  35 VRB5      30.00F
HENDERSON      NOT AVBL
OWENSBORO      SUNNY     73  51  46 VRB6      30.04F
HOPKINSVILLE   MOSUNNY   72  48  41 NE3       30.01F
BOWLING GREEN  CLOUDY    72  52  49 VRB3      30.05F
GLASGOW        NOT AVBL
$$

KYZ024-025-028>034-038-045-046-053-222200-
NORTH CENTRAL KENTUCKY

CITY           SKY/WX    TMP DP  RH WIND       PRES   REMARKS
LOUISVILLE/SDF PTSUNNY   70  46  42 SE3       30.04F
LOUISVILLE/LOU PTSUNNY   71  47  42 E5        30.05F
FORT KNOX      MOSUNNY   68  49  50 NE5       30.03F
$$

KYZ035>037-039>044-047>052-055>060-089>105-222200-
NORTHEAST KENTUCKY

CITY           SKY/WX    TMP DP  RH WIND       PRES   REMARKS
LEXINGTON      CLOUDY    69  45  41 NE5       30.06F
COVINGTON      PTSUNNY   66  43  43 SE5       30.06F
FRANKFORT      PTSUNNY   69  47  45 CALM      30.05F
$$

KYZ054-064>069-076>088-106>120-222200-
SOUTHEAST KENTUCKY

CITY           SKY/WX    TMP DP  RH WIND       PRES   REMARKS
JACKSON        PTSUNNY   67  50  54 VRB3      30.07F
LONDON         MOSUNNY   69  49  48 NE7       30.05F
SOMERSET       CLOUDY    68  46  45 E6        30.06F
MIDDLESBORO    SUNNY     74  55  52 N5        30.03F
MONTICELLO     CLOUDY    69  50  50 VRB3      30.06F
$$





USA.gov is the U.S. government's official web portal to all federal, state and local government web resources and services.